Torna al catalogo

TRYAD 1

AttivoScienzaSSO
NORAD 66691·PAYLOAD·🇺🇸 United States
Questo nome del satellite non è ancora stato confermato da fonti ufficiali.

Lanciato Nov 28, 2025 da Vandenberg Space Force Base

Loading…

Prossimi Passaggi (prossime 24 ore)

TLE

AggiornatoSource: Space-Track

Epoca: Sep 14, 2026, 10:50 UTC

1 66691U 25276AB  26257.45161335  .00006306  00000-0  27748-3 0  9996
2 66691  97.4126 329.8600 0005600  58.2850 301.8932 15.22199160 44006

Traccia TRYAD 1 in tempo reale con AllMySat

Download on the App Store